Precipitable_Water
0.23 0.22 0.23 0.37 0.47 0.55 0.59 0.57 0.55 0.45 0.50 0.55 0.64 0.62 0.64 0.71 0.81 0.92 1.03 1.14 1.28 1.16 1.14 1.19 1.25 1.27 1.36 1.43 1.53 1.59 1.65 1.57 1.51 1.40 1.22 1.16 1.09 1.05 1.03 1.04 1.09 1.12 1.17 1.31 1.36 1.40 1.39 1.40 1.38 1.39 1.35 1.34 1.34 1.36 1.40 1.44 1.47 1.54 1.59 1.63 1.59 1.66 1.67 1.61 1.57 1.53 1.52 1.51 1.52 1.58 1.55 1.57 1.61 1.68 1.71 1.69 1.71 1.69 1.69 1.62 1.60 1.58 1.63 1.60 1.60 1.61
0.24 0.21 0.24 0.36 0.51 0.59 0.65 0.55 0.47 0.43 0.47 0.48 0.52 0.57 0.59 0.63 0.70 0.93 1.00 1.06 1.23 1.11 1.07 1.22 1.23 1.25 1.33 1.46 1.54 1.62 1.58 1.46 1.47 1.44 1.34 1.19 1.14 1.08 1.03 1.03 1.07 1.16 1.25 1.31 1.31 1.37 1.39 1.41 1.39 1.41 1.41 1.42 1.37 1.41 1.44 1.41 1.44 1.50 1.57 1.61 1.63 1.66 1.64 1.59 1.54 1.52 1.54 1.56 1.57 1.54 1.57 1.62 1.66 1.65 1.63 1.63 1.65 1.69 1.70 1.63 1.65 1.62 1.65 1.58 1.59 1.60
0.20 0.19 0.28 0.38 0.60 0.64 0.58 0.51 0.48 0.44 0.44 0.46 0.43 0.46 0.52 0.60 0.76 0.85 1.00 1.06 1.13 1.07 1.05 1.12 1.13 1.22 1.33 1.44 1.53 1.56 1.53 1.54 1.55 1.51 1.49 1.36 1.18 1.11 1.07 1.06 1.08 1.14 1.17 1.24 1.27 1.30 1.36 1.41 1.42 1.44 1.44 1.46 1.47 1.45 1.45 1.46 1.45 1.46 1.50 1.58 1.65 1.65 1.62 1.59 1.58 1.57 1.55 1.57 1.63 1.64 1.64 1.68 1.67 1.75 1.76 1.73 1.70 1.70 1.63 1.63 1.64 1.67 1.64 1.60 1.61 1.61
0.18 0.19 0.31 0.53 0.59 0.56 0.55 0.53 0.48 0.46 0.44 0.41 0.40 0.34 0.37 0.57 0.59 0.65 0.84 0.96 1.04 0.99 1.02 1.09 1.04 1.18 1.35 1.47 1.50 1.58 1.58 1.60 1.65 1.61 1.55 1.58 1.38 1.17 1.11 1.10 1.08 1.11 1.13 1.16 1.20 1.23 1.28 1.35 1.40 1.44 1.45 1.46 1.50 1.49 1.48 1.48 1.45 1.45 1.46 1.52 1.60 1.64 1.63 1.59 1.60 1.62 1.63 1.60 1.63 1.69 1.67 1.69 1.69 1.65 1.74 1.74 1.69 1.68 1.64 1.58 1.63 1.66 1.64 1.63 1.63 1.63
0.22 0.26 0.33 0.54 0.52 0.54 0.53 0.53 0.46 0.42 0.40 0.42 0.39 0.41 0.38 0.44 0.59 0.70 0.79 0.90 1.02 1.01 1.01 1.08 0.99 1.09 1.21 1.22 1.32 1.49 1.63 1.62 1.63 1.64 1.62 1.64 1.60 1.46 1.29 1.21 1.17 1.13 1.13 1.15 1.19 1.22 1.23 1.25 1.31 1.36 1.43 1.48 1.45 1.46 1.47 1.48 1.45 1.45 1.42 1.47 1.56 1.62 1.62 1.61 1.59 1.58 1.64 1.55 1.51 1.55 1.57 1.61 1.62 1.64 1.62 1.61 1.57 1.61 1.62 1.58 1.56 1.58 1.63 1.61 1.63 1.63
0.28 0.41 0.51 0.44 0.43 0.52 0.52 0.46 0.46 0.43 0.39 0.38 0.41 0.41 0.38 0.43 0.52 0.65 0.76 0.74 0.73 0.80 0.90 0.95 0.76 0.82 1.05 1.12 1.21 1.38 1.46 1.45 1.57 1.54 1.51 1.54 1.59 1.55 1.36 1.21 1.20 1.21 1.21 1.19 1.18 1.19 1.20 1.21 1.27 1.31 1.38 1.40 1.42 1.41 1.45 1.50 1.52 1.49 1.47 1.44 1.52 1.59 1.62 1.60 1.58 1.57 1.58 1.45 1.40 1.36 1.31 1.25 1.33 1.38 1.43 1.45 1.49 1.53 1.49 1.55 1.61 1.63 1.63 1.61 1.64 1.63
0.29 0.40 0.39 0.38 0.35 0.46 0.49 0.47 0.50 0.43 0.39 0.34 0.38 0.45 0.41 0.38 0.51 0.59 0.69 0.71 0.59 0.54 0.86 0.94 0.74 0.72 1.01 1.01 1.11 1.27 1.31 1.33 1.49 1.51 1.52 1.51 1.54 1.54 1.46 1.34 1.21 1.19 1.21 1.23 1.24 1.22 1.21 1.21 1.22 1.25 1.31 1.36 1.38 1.41 1.45 1.47 1.53 1.52 1.53 1.46 1.48 1.54 1.57 1.62 1.59 1.55 1.52 1.43 1.41 1.35 1.28 1.25 1.28 1.33 1.42 1.57 1.63 1.61 1.65 1.75 1.63 1.66 1.68 1.65 1.63 1.62
0.38 0.38 0.35 0.40 0.38 0.39 0.42 0.42 0.46 0.44 0.40 0.36 0.41 0.42 0.42 0.40 0.44 0.57 0.57 0.62 0.62 0.75 0.82 0.83 0.85 0.78 0.74 0.93 1.12 1.22 1.21 1.24 1.31 1.40 1.47 1.50 1.51 1.50 1.51 1.45 1.32 1.24 1.24 1.22 1.22 1.23 1.23 1.25 1.23 1.22 1.29 1.33 1.38 1.45 1.45 1.41 1.48 1.49 1.52 1.49 1.45 1.51 1.54 1.58 1.59 1.53 1.49 1.43 1.41 1.34 1.31 1.31 1.29 1.32 1.37 1.50 1.59 1.67 1.68 1.67 1.68 1.68 1.69 1.67 1.70 1.66
0.32 0.32 0.30 0.31 0.37 0.37 0.36 0.44 0.48 0.48 0.42 0.39 0.39 0.41 0.41 0.38 0.38 0.61 0.59 0.62 0.65 0.63 0.62 0.75 0.90 0.66 0.64 0.84 1.07 1.14 1.07 1.12 1.20 1.29 1.36 1.43 1.50 1.52 1.53 1.53 1.44 1.34 1.30 1.28 1.24 1.23 1.22 1.25 1.25 1.28 1.29 1.33 1.37 1.43 1.44 1.40 1.43 1.48 1.51 1.52 1.49 1.49 1.51 1.56 1.57 1.50 1.47 1.46 1.45 1.40 1.36 1.32 1.35 1.38 1.39 1.43 1.51 1.53 1.55 1.57 1.67 1.69 1.72 1.68 1.69 1.70
0.36 0.36 0.35 0.34 0.31 0.32 0.39 0.46 0.44 0.46 0.42 0.46 0.41 0.44 0.42 0.39 0.38 0.52 0.59 0.61 0.67 0.59 0.48 0.65 0.81 0.59 0.65 0.97 0.96 1.08 1.04 1.02 1.07 1.20 1.29 1.38 1.43 1.52 1.56 1.59 1.56 1.46 1.36 1.33 1.31 1.29 1.26 1.26 1.28 1.32 1.34 1.33 1.35 1.43 1.47 1.45 1.44 1.44 1.47 1.49 1.48 1.48 1.50 1.54 1.54 1.50 1.47 1.45 1.45 1.44 1.43 1.40 1.34 1.39 1.39 1.41 1.41 1.44 1.49 1.48 1.53 1.55 1.63 1.65 1.63 1.68
0.42 0.40 0.42 0.38 0.33 0.38 0.39 0.39 0.38 0.41 0.50 0.42 0.41 0.44 0.43 0.43 0.42 0.49 0.56 0.64 0.63 0.52 0.52 0.59 0.75 0.69 0.55 0.85 0.96 0.88 0.92 1.01 1.11 1.20 1.30 1.37 1.44 1.51 1.59 1.64 1.64 1.56 1.42 1.34 1.32 1.33 1.31 1.31 1.33 1.33 1.29 1.31 1.35 1.41 1.45 1.44 1.43 1.42 1.41 1.45 1.44 1.47 1.52 1.53 1.52 1.48 1.46 1.46 1.44 1.43 1.48 1.47 1.44 1.41 1.42 1.36 1.38 1.43 1.46 1.47 1.52 1.51 1.54 1.62 1.65 1.68
0.40 0.38 0.31 0.35 0.41 0.43 0.39 0.32 0.32 0.35 0.43 0.41 0.38 0.40 0.41 0.41 0.50 0.47 0.49 0.59 0.50 0.44 0.53 0.60 0.69 0.71 0.51 0.72 0.94 1.04 1.13 1.10 1.14 1.14 1.21 1.29 1.35 1.44 1.54 1.62 1.69 1.69 1.55 1.42 1.37 1.33 1.33 1.31 1.32 1.33 1.29 1.30 1.35 1.39 1.43 1.46 1.45 1.43 1.39 1.40 1.41 1.44 1.50 1.51 1.51 1.49 1.47 1.47 1.46 1.45 1.48 1.50 1.52 1.53 1.52 1.49 1.45 1.47 1.47 1.48 1.54 1.63 1.59 1.56 1.63 1.68
0.32 0.32 0.36 0.35 0.38 0.36 0.33 0.28 0.29 0.28 0.31 0.33 0.36 0.35 0.32 0.34 0.36 0.31 0.38 0.37 0.40 0.40 0.55 0.61 0.63 0.62 0.59 0.78 0.99 1.06 1.10 1.12 1.17 1.23 1.23 1.28 1.35 1.42 1.50 1.59 1.64 1.69 1.67 1.51 1.41 1.37 1.34 1.31 1.28 1.30 1.31 1.35 1.38 1.38 1.42 1.45 1.46 1.45 1.41 1.35 1.34 1.39 1.47 1.50 1.51 1.48 1.48 1.47 1.48 1.46 1.46 1.51 1.57 1.60 1.63 1.62 1.56 1.55 1.52 1.53 1.56 1.58 1.56 1.60 1.55 1.59
0.27 0.31 0.33 0.35 0.34 0.33 0.34 0.25 0.26 0.22 0.23 0.24 0.26 0.28 0.27 0.27 0.30 0.26 0.31 0.38 0.42 0.47 0.60 0.59 0.68 0.55 0.68 0.80 1.00 1.01 1.09 1.15 1.21 1.22 1.30 1.33 1.37 1.43 1.49 1.55 1.61 1.63 1.69 1.62 1.46 1.38 1.37 1.35 1.33 1.33 1.33 1.38 1.42 1.41 1.43 1.44 1.44 1.46 1.43 1.37 1.31 1.38 1.46 1.50 1.50 1.49 1.47 1.48 1.51 1.52 1.50 1.52 1.56 1.61 1.67 1.69 1.66 1.64 1.61 1.62 1.62 1.63 1.63 1.62 1.59 1.60
0.23 0.23 0.27 0.30 0.25 0.34 0.30 0.30 0.30 0.26 0.24 0.22 0.24 0.24 0.26 0.28 0.29 0.26 0.30 0.30 0.33 0.40 0.49 0.65 0.54 0.50 0.54 0.67 0.96 1.07 1.09 1.14 1.18 1.21 1.28 1.37 1.44 1.50 1.56 1.59 1.60 1.60 1.65 1.73 1.57 1.41 1.41 1.41 1.40 1.37 1.39 1.40 1.42 1.40 1.40 1.44 1.43 1.45 1.44 1.42 1.32 1.34 1.44 1.48 1.47 1.50 1.49 1.51 1.52 1.53 1.54 1.54 1.59 1.62 1.65 1.72 1.75 1.74 1.68 1.66 1.65 1.66 1.73 1.72 1.70 1.70
0.28 0.29 0.36 0.34 0.33 0.36 0.29 0.30 0.35 0.32 0.28 0.26 0.23 0.24 0.22 0.23 0.35 0.31 0.35 0.34 0.38 0.40 0.44 0.54 0.47 0.62 0.66 1.01 1.06 1.03 1.12 1.13 1.16 1.17 1.21 1.29 1.39 1.48 1.52 1.56 1.59 1.62 1.64 1.74 1.64 1.45 1.43 1.45 1.45 1.44 1.44 1.44 1.42 1.42 1.42 1.45 1.44 1.43 1.44 1.44 1.38 1.34 1.40 1.46 1.45 1.49 1.52 1.53 1.56 1.57 1.54 1.54 1.58 1.63 1.68 1.71 1.76 1.81 1.81 1.75 1.72 1.71 1.74 1.78 1.80 1.77
0.30 0.25 0.38 0.37 0.34 0.32 0.31 0.31 0.29 0.33 0.21 0.25 0.23 0.18 0.19 0.26 0.30 0.33 0.40 0.43 0.45 0.41 0.38 0.57 0.55 0.57 0.76 0.76 0.89 0.99 0.98 1.05 1.06 1.10 1.15 1.24 1.34 1.42 1.46 1.55 1.61 1.62 1.64 1.71 1.68 1.50 1.46 1.48 1.49 1.50 1.48 1.46 1.44 1.43 1.42 1.46 1.46 1.43 1.42 1.42 1.41 1.40 1.42 1.42 1.45 1.46 1.50 1.54 1.54 1.55 1.56 1.56 1.56 1.57 1.59 1.64 1.68 1.72 1.79 1.83 1.82 1.78 1.78 1.78 1.79 1.77
0.31 0.27 0.37 0.33 0.29 0.30 0.35 0.34 0.33 0.31 0.32 0.31 0.21 0.21 0.25 0.26 0.29 0.30 0.27 0.35 0.34 0.31 0.35 0.44 0.47 0.49 0.47 0.44 0.81 0.89 0.91 0.92 0.96 1.04 1.09 1.21 1.32 1.34 1.41 1.50 1.58 1.61 1.64 1.72 1.73 1.63 1.54 1.52 1.52 1.52 1.53 1.51 1.49 1.46 1.46 1.46 1.49 1.49 1.46 1.43 1.40 1.40 1.39 1.42 1.44 1.44 1.46 1.48 1.51 1.54 1.55 1.56 1.58 1.58 1.57 1.60 1.66 1.72 1.76 1.79 1.82 1.86 1.83 1.80 1.81 1.77
0.36 0.30 0.34 0.36 0.35 0.33 0.33 0.34 0.30 0.33 0.30 0.31 0.30 0.31 0.20 0.17 0.15 0.25 0.28 0.24 0.25 0.24 0.28 0.38 0.44 0.46 0.50 0.53 0.72 0.83 0.83 0.87 0.93 1.03 1.06 1.11 1.23 1.29 1.36 1.48 1.59 1.66 1.71 1.76 1.72 1.68 1.58 1.56 1.57 1.59 1.59 1.61 1.58 1.54 1.52 1.52 1.55 1.54 1.52 1.52 1.48 1.43 1.42 1.43 1.45 1.46 1.48 1.50 1.50 1.52 1.54 1.55 1.56 1.59 1.60 1.62 1.67 1.72 1.73 1.77 1.80 1.79 1.84 1.86 1.86 1.81
0.39 0.30 0.33 0.38 0.35 0.37 0.32 0.28 0.24 0.27 0.30 0.31 0.36 0.30 0.29 0.22 0.18 0.17 0.19 0.25 0.30 0.27 0.26 0.31 0.41 0.39 0.52 0.53 0.79 0.86 0.85 0.90 0.95 1.00 1.08 1.12 1.19 1.27 1.33 1.40 1.50 1.59 1.67 1.68 1.73 1.71 1.66 1.63 1.61 1.61 1.63 1.61 1.58 1.56 1.55 1.56 1.57 1.55 1.57 1.55 1.52 1.55 1.57 1.54 1.49 1.47 1.46 1.49 1.49 1.49 1.54 1.57 1.58 1.59 1.59 1.62 1.65 1.68 1.73 1.78 1.82 1.81 1.80 1.80 1.85 1.81
0.37 0.37 0.30 0.38 0.38 0.34 0.27 0.26 0.24 0.30 0.27 0.24 0.25 0.27 0.26 0.22 0.29 0.23 0.24 0.20 0.26 0.27 0.28 0.26 0.32 0.38 0.64 0.79 0.81 0.86 0.87 0.91 0.98 1.00 1.08 1.13 1.19 1.27 1.33 1.37 1.44 1.52 1.61 1.65 1.70 1.73 1.70 1.68 1.68 1.64 1.66 1.68 1.68 1.65 1.61 1.58 1.58 1.59 1.62 1.58 1.58 1.55 1.57 1.56 1.56 1.54 1.51 1.53 1.51 1.50 1.50 1.53 1.56 1.57 1.59 1.60 1.64 1.68 1.74 1.81 1.83 1.84 1.83 1.85 1.81 1.81
0.35 0.37 0.30 0.37 0.35 0.25 0.29 0.38 0.34 0.38 0.37 0.31 0.25 0.23 0.27 0.23 0.20 0.20 0.20 0.24 0.23 0.27 0.27 0.27 0.27 0.41 0.73 0.86 0.79 0.83 0.90 0.96 1.05 1.08 1.10 1.17 1.23 1.28 1.35 1.37 1.41 1.49 1.58 1.66 1.70 1.73 1.73 1.75 1.74 1.69 1.70 1.76 1.71 1.65 1.59 1.57 1.57 1.58 1.59 1.61 1.62 1.61 1.60 1.58 1.60 1.62 1.63 1.59 1.58 1.52 1.52 1.54 1.59 1.60 1.60 1.58 1.61 1.63 1.69 1.76 1.82 1.85 1.84 1.79 1.82 1.80
0.39 0.41 0.37 0.33 0.35 0.33 0.39 0.43 0.41 0.39 0.39 0.37 0.33 0.27 0.29 0.28 0.25 0.20 0.16 0.22 0.24 0.30 0.34 0.35 0.32 0.49 0.81 0.82 0.84 0.83 0.93 1.01 1.10 1.12 1.12 1.19 1.25 1.31 1.36 1.40 1.43 1.50 1.57 1.65 1.69 1.73 1.73 1.75 1.79 1.79 1.75 1.74 1.73 1.69 1.69 1.65 1.60 1.61 1.62 1.61 1.62 1.61 1.62 1.64 1.64 1.67 1.71 1.67 1.59 1.55 1.56 1.58 1.57 1.59 1.58 1.56 1.56 1.56 1.61 1.68 1.75 1.84 1.80 1.78 1.80 1.80
0.42 0.37 0.35 0.35 0.42 0.45 0.43 0.42 0.42 0.39 0.36 0.33 0.34 0.37 0.34 0.29 0.28 0.24 0.22 0.24 0.24 0.23 0.23 0.31 0.33 0.44 0.73 0.86 0.87 0.87 0.94 1.08 1.14 1.18 1.17 1.19 1.26 1.35 1.38 1.41 1.43 1.47 1.58 1.67 1.70 1.74 1.76 1.79 1.82 1.79 1.76 1.75 1.74 1.72 1.73 1.76 1.73 1.73 1.74 1.72 1.71 1.65 1.66 1.69 1.69 1.71 1.71 1.69 1.65 1.62 1.59 1.58 1.58 1.57 1.58 1.54 1.55 1.54 1.58 1.65 1.70 1.76 1.77 1.78 1.79 1.79
0.29 0.39 0.39 0.34 0.34 0.37 0.39 0.38 0.36 0.40 0.39 0.36 0.38 0.40 0.39 0.36 0.33 0.32 0.32 0.35 0.29 0.28 0.25 0.25 0.25 0.40 0.71 0.81 0.87 0.85 0.88 0.98 1.05 1.17 1.21 1.17 1.23 1.31 1.39 1.45 1.49 1.51 1.56 1.63 1.68 1.72 1.73 1.75 1.77 1.76 1.79 1.80 1.83 1.85 1.84 1.77 1.68 1.72 1.77 1.80 1.79 1.77 1.76 1.73 1.74 1.73 1.73 1.73 1.69 1.65 1.62 1.61 1.59 1.56 1.56 1.57 1.59 1.57 1.58 1.60 1.66 1.74 1.74 1.74 1.75 1.78
0.35 0.38 0.37 0.31 0.29 0.27 0.28 0.27 0.27 0.30 0.34 0.40 0.43 0.43 0.40 0.37 0.37 0.29 0.22 0.26 0.24 0.31 0.32 0.26 0.25 0.63 0.76 0.79 0.75 0.80 0.85 0.92 1.04 1.14 1.22 1.24 1.22 1.28 1.36 1.40 1.49 1.52 1.52 1.56 1.61 1.63 1.63 1.68 1.71 1.73 1.80 1.80 1.80 1.83 1.91 1.87 1.83 1.82 1.82 1.83 1.88 1.87 1.88 1.85 1.82 1.79 1.76 1.79 1.75 1.71 1.64 1.63 1.66 1.64 1.60 1.58 1.59 1.61 1.62 1.62 1.63 1.69 1.74 1.70 1.72 1.76
0.38 0.38 0.38 0.37 0.36 0.36 0.40 0.41 0.43 0.44 0.40 0.34 0.42 0.44 0.45 0.43 0.41 0.36 0.35 0.30 0.23 0.26 0.33 0.36 0.36 0.54 0.58 0.61 0.69 0.75 0.80 0.84 0.94 1.06 1.10 1.18 1.22 1.29 1.35 1.40 1.43 1.51 1.53 1.57 1.56 1.59 1.63 1.66 1.68 1.72 1.75 1.81 1.85 1.82 1.84 1.87 1.88 1.88 1.87 1.93 1.93 1.97 1.98 1.97 1.93 1.87 1.83 1.82 1.76 1.74 1.71 1.66 1.65 1.69 1.70 1.68 1.66 1.66 1.64 1.62 1.64 1.67 1.71 1.71 1.67 1.71
0.36 0.31 0.33 0.37 0.39 0.41 0.47 0.46 0.45 0.43 0.42 0.42 0.40 0.41 0.47 0.49 0.47 0.36 0.30 0.32 0.46 0.34 0.25 0.41 0.47 0.44 0.51 0.57 0.64 0.71 0.78 0.85 0.97 1.04 1.10 1.20 1.26 1.28 1.35 1.39 1.42 1.46 1.53 1.57 1.56 1.56 1.57 1.62 1.66 1.69 1.71 1.75 1.75 1.78 1.85 1.90 1.93 1.94 1.96 1.97 2.04 2.06 2.05 2.07 2.02 1.95 1.89 1.89 1.87 1.83 1.80 1.76 1.75 1.74 1.78 1.79 1.80 1.76 1.73 1.68 1.63 1.64 1.66 1.70 1.67 1.67
0.33 0.30 0.35 0.36 0.39 0.42 0.44 0.45 0.46 0.45 0.42 0.42 0.41 0.41 0.44 0.54 0.53 0.44 0.42 0.48 0.50 0.37 0.30 0.57 0.56 0.38 0.50 0.57 0.67 0.71 0.78 0.83 0.96 1.04 1.13 1.26 1.31 1.32 1.35 1.36 1.36 1.39 1.44 1.46 1.49 1.53 1.54 1.55 1.61 1.66 1.73 1.77 1.78 1.76 1.78 1.84 1.92 1.96 1.98 2.02 2.05 2.07 2.08 2.12 2.08 2.03 1.99 1.95 1.92 1.94 1.96 1.95 1.92 1.89 1.84 1.81 1.81 1.81 1.78 1.75 1.71 1.65 1.61 1.59 1.62 1.67
0.32 0.31 0.38 0.38 0.37 0.39 0.42 0.45 0.46 0.43 0.43 0.42 0.41 0.42 0.45 0.51 0.56 0.53 0.51 0.52 0.47 0.47 0.54 0.54 0.61 0.63 0.74 0.68 0.69 0.77 0.88 0.90 0.99 1.10 1.13 1.17 1.22 1.27 1.30 1.32 1.33 1.36 1.38 1.39 1.44 1.51 1.55 1.58 1.59 1.63 1.69 1.73 1.78 1.83 1.86 1.90 1.93 1.97 1.98 2.02 2.06 2.05 2.09 2.13 2.10 2.06 2.03 2.02 2.01 2.01 2.01 2.02 2.06 2.04 1.97 1.90 1.83 1.82 1.82 1.81 1.76 1.69 1.62 1.56 1.54 1.54
0.29 0.34 0.34 0.37 0.34 0.35 0.39 0.40 0.43 0.44 0.43 0.40 0.43 0.43 0.44 0.45 0.56 0.59 0.57 0.55 0.46 0.45 0.52 0.44 0.57 0.62 0.80 0.84 0.79 0.87 0.93 0.96 0.99 1.01 1.05 1.13 1.18 1.22 1.24 1.26 1.28 1.31 1.35 1.40 1.44 1.49 1.53 1.56 1.58 1.60 1.62 1.67 1.74 1.80 1.87 1.93 1.98 2.01 2.03 2.07 2.06 2.05 2.10 2.12 2.08 2.08 2.06 2.04 2.07 2.08 2.07 2.05 2.05 2.06 2.02 2.00 1.97 1.95 1.88 1.82 1.81 1.76 1.69 1.63 1.55 1.49
0.33 0.35 0.32 0.32 0.30 0.33 0.39 0.39 0.39 0.43 0.43 0.41 0.41 0.41 0.44 0.47 0.47 0.53 0.54 0.59 0.51 0.52 0.52 0.52 0.49 0.58 0.76 0.84 0.81 0.87 0.88 0.93 0.92 0.96 1.02 1.08 1.16 1.19 1.20 1.23 1.26 1.29 1.32 1.35 1.38 1.42 1.45 1.48 1.51 1.55 1.57 1.62 1.69 1.76 1.81 1.86 1.95 2.00 2.01 2.05 2.06 2.10 2.14 2.11 2.11 2.11 2.12 2.13 2.14 2.13 2.12 2.11 2.10 2.08 2.08 2.08 2.04 2.04 2.05 1.99 1.90 1.82 1.78 1.71 1.62 1.55
0.35 0.34 0.29 0.29 0.26 0.29 0.39 0.41 0.39 0.37 0.39 0.36 0.37 0.43 0.56 0.57 0.55 0.63 0.65 0.66 0.63 0.60 0.51 0.49 0.66 0.80 0.77 0.80 0.74 0.79 0.84 0.90 0.95 1.01 1.04 1.09 1.12 1.16 1.19 1.22 1.26 1.29 1.32 1.34 1.37 1.37 1.40 1.44 1.49 1.53 1.56 1.59 1.65 1.71 1.81 1.83 1.84 1.87 1.94 2.00 2.09 2.14 2.14 2.12 2.09 2.09 2.10 2.16 2.19 2.19 2.20 2.19 2.17 2.14 2.12 2.11 2.11 2.12 2.10 2.05 2.01 1.94 1.86 1.78 1.74 1.67
0.36 0.35 0.32 0.35 0.26 0.29 0.38 0.41 0.42 0.34 0.26 0.31 0.63 0.64 0.57 0.54 0.54 0.51 0.53 0.61 0.68 0.69 0.70 0.75 0.75 0.84 0.81 0.78 0.74 0.76 0.81 0.85 0.92 1.07 1.14 1.13 1.12 1.14 1.20 1.22 1.24 1.27 1.29 1.32 1.36 1.38 1.40 1.44 1.47 1.51 1.53 1.56 1.62 1.69 1.76 1.76 1.76 1.82 1.91 1.96 2.02 2.04 2.05 2.04 2.04 2.07 2.08 2.12 2.13 2.15 2.18 2.17 2.16 2.14 2.15 2.17 2.19 2.19 2.15 2.10 2.06 2.06 2.02 1.94 1.86 1.73
0.33 0.33 0.35 0.35 0.27 0.29 0.36 0.38 0.33 0.27 0.29 0.52 0.56 0.64 0.66 0.63 0.61 0.62 0.62 0.64 0.66 0.72 0.72 0.71 0.75 0.76 0.85 0.87 0.87 0.85 0.86 0.90 0.97 1.02 1.10 1.15 1.16 1.16 1.16 1.19 1.18 1.23 1.24 1.27 1.30 1.32 1.37 1.40 1.45 1.50 1.53 1.53 1.57 1.62 1.70 1.81 1.82 1.82 1.84 1.89 1.91 1.96 1.97 1.98 1.98 1.97 2.00 2.01 2.05 2.08 2.09 2.10 2.11 2.11 2.14 2.17 2.19 2.19 2.19 2.18 2.18 2.16 2.14 2.06 1.92 1.79
0.32 0.34 0.38 0.31 0.30 0.35 0.32 0.31 0.23 0.27 0.46 0.50 0.49 0.52 0.59 0.57 0.57 0.56 0.64 0.65 0.68 0.69 0.75 0.76 0.80 0.81 0.87 0.93 0.91 0.91 0.91 0.94 0.99 1.06 1.08 1.10 1.17 1.14 1.14 1.17 1.20 1.21 1.19 1.27 1.31 1.34 1.31 1.37 1.37 1.41 1.46 1.56 1.57 1.60 1.63 1.66 1.77 1.77 1.79 1.83 1.85 1.87 1.88 1.91 1.90 1.90 1.91 1.92 1.97 1.98 2.00 2.00 2.00 2.04 2.09 2.09 2.12 2.11 2.11 2.17 2.20 2.22 2.23 2.17 2.10 1.97
0.32 0.34 0.34 0.33 0.34 0.25 0.26 0.27 0.29 0.46 0.42 0.43 0.44 0.47 0.49 0.51 0.54 0.52 0.48 0.64 0.68 0.75 0.75 0.78 0.83 0.85 0.88 0.95 0.93 0.94 0.97 0.97 0.90 0.93 1.05 1.09 1.12 1.16 1.17 1.19 1.20 1.21 1.23 1.26 1.29 1.32 1.34 1.33 1.28 1.29 1.34 1.38 1.43 1.50 1.56 1.63 1.65 1.66 1.66 1.66 1.73 1.78 1.80 1.82 1.79 1.82 1.85 1.88 1.90 1.91 1.93 1.92 1.92 1.94 1.95 1.98 2.00 2.03 2.06 2.06 2.11 2.18 2.22 2.18 2.17 2.07
0.32 0.27 0.35 0.30 0.34 0.30 0.27 0.27 0.32 0.31 0.27 0.40 0.46 0.52 0.57 0.58 0.61 0.62 0.53 0.58 0.72 0.81 0.85 0.78 0.80 0.84 0.88 0.91 0.92 0.94 0.99 0.85 0.74 0.80 0.98 1.10 1.15 1.14 1.18 1.21 1.21 1.20 1.18 1.14 1.14 1.19 1.22 1.24 1.26 1.26 1.24 1.23 1.24 1.30 1.37 1.43 1.49 1.50 1.51 1.55 1.59 1.62 1.64 1.67 1.66 1.71 1.75 1.78 1.82 1.83 1.85 1.87 1.87 1.85 1.85 1.88 1.90 1.96 2.01 2.07 2.13 2.14 2.23 2.18 2.15 2.10
0.31 0.27 0.24 0.28 0.32 0.30 0.26 0.25 0.27 0.25 0.35 0.47 0.51 0.53 0.58 0.60 0.63 0.63 0.51 0.47 0.69 0.82 0.88 0.86 0.81 0.88 0.90 0.90 0.93 0.98 0.88 0.73 0.74 0.85 1.02 1.14 1.18 1.20 1.19 1.20 1.19 1.13 1.09 1.05 1.03 1.03 1.07 1.09 1.11 1.13 1.16 1.16 1.15 1.19 1.22 1.23 1.25 1.24 1.27 1.34 1.41 1.48 1.51 1.55 1.58 1.61 1.63 1.65 1.69 1.73 1.74 1.74 1.76 1.76 1.75 1.75 1.80 1.87 1.92 1.95 2.01 2.07 2.20 2.18 2.22 2.18
0.28 0.26 0.21 0.19 0.23 0.27 0.29 0.26 0.24 0.31 0.39 0.47 0.49 0.54 0.58 0.68 0.62 0.57 0.35 0.42 0.58 0.79 0.87 0.87 0.85 0.88 0.96 0.97 1.00 0.97 0.88 0.75 0.79 0.92 1.12 1.20 1.23 1.26 1.20 1.19 1.19 1.15 1.06 1.07 1.06 1.04 1.03 1.04 1.00 0.97 0.98 1.01 1.05 1.10 1.09 1.09 1.08 1.06 1.09 1.13 1.19 1.22 1.26 1.37 1.47 1.55 1.59 1.60 1.59 1.60 1.62 1.64 1.66 1.69 1.70 1.73 1.76 1.86 1.89 1.97 1.99 1.97 2.04 2.12 2.09 2.08
0.23 0.25 0.19 0.22 0.23 0.26 0.20 0.25 0.32 0.40 0.47 0.48 0.49 0.52 0.57 0.64 0.54 0.38 0.33 0.51 0.63 0.64 0.84 0.89 0.89 0.91 0.98 0.99 1.02 0.96 1.01 1.07 1.05 1.16 1.19 1.21 1.26 1.27 1.24 1.19 1.14 1.15 1.08 1.01 1.01 1.03 1.00 1.00 0.97 0.95 0.94 0.96 0.99 1.01 1.01 1.02 1.00 0.99 1.02 1.04 1.04 1.05 1.11 1.18 1.26 1.30 1.36 1.41 1.44 1.44 1.44 1.46 1.50 1.51 1.56 1.60 1.61 1.66 1.73 1.81 1.87 1.95 1.98 2.00 2.00 2.01
0.26 0.20 0.21 0.16 0.18 0.21 0.23 0.23 0.31 0.40 0.49 0.56 0.55 0.53 0.57 0.52 0.36 0.35 0.59 0.71 0.71 0.68 0.79 0.89 0.92 0.94 0.99 0.99 1.02 1.05 1.08 1.13 1.13 1.12 1.17 1.23 1.30 1.32 1.27 1.19 1.13 1.09 1.06 1.00 0.99 0.99 0.99 0.97 0.93 0.90 0.89 0.91 0.91 0.90 0.89 0.90 0.92 0.98 1.01 1.02 1.00 1.04 1.11 1.16 1.19 1.22 1.24 1.25 1.27 1.28 1.30 1.34 1.38 1.42 1.42 1.46 1.48 1.48 1.55 1.68 1.78 1.85 1.90 1.85 1.83 1.87
0.25 0.24 0.25 0.21 0.20 0.15 0.17 0.20 0.23 0.21 0.49 0.55 0.56 0.58 0.56 0.46 0.54 0.63 0.67 0.71 0.77 0.74 0.78 0.85 0.91 0.97 0.98 1.01 1.05 1.09 1.08 1.07 1.07 1.08 1.10 1.16 1.17 1.19 1.22 1.21 1.16 1.11 1.07 1.04 1.01 1.02 0.97 0.91 0.88 0.87 0.86 0.89 0.90 0.91 0.90 0.85 0.82 0.88 0.97 1.01 1.05 1.07 1.09 1.11 1.13 1.14 1.15 1.16 1.16 1.18 1.22 1.24 1.26 1.29 1.33 1.35 1.41 1.42 1.42 1.49 1.59 1.70 1.77 1.78 1.76 1.78
0.34 0.28 0.27 0.28 0.23 0.26 0.19 0.17 0.23 0.42 0.48 0.56 0.53 0.44 0.56 0.58 0.63 0.67 0.67 0.65 0.74 0.82 0.83 0.85 0.88 0.97 1.02 1.03 1.04 1.05 1.04 1.02 1.03 1.05 1.05 1.06 1.11 1.16 1.11 1.10 1.11 1.16 1.14 1.08 1.04 1.03 0.96 0.89 0.87 0.85 0.86 0.87 0.88 0.87 0.87 0.84 0.79 0.80 0.85 0.91 1.05 1.10 1.10 1.09 1.07 1.08 1.06 1.04 1.04 1.06 1.09 1.12 1.14 1.18 1.23 1.27 1.32 1.37 1.39 1.42 1.49 1.56 1.60 1.62 1.62 1.59
0.42 0.35 0.37 0.33 0.36 0.29 0.33 0.38 0.43 0.48 0.50 0.55 0.53 0.55 0.58 0.65 0.68 0.68 0.69 0.70 0.72 0.82 0.90 0.88 0.90 0.96 1.00 1.02 1.02 1.02 1.01 1.00 0.97 0.97 0.96 0.98 1.01 1.08 1.09 1.08 1.06 1.01 1.01 1.02 1.06 1.06 1.01 0.94 0.89 0.89 0.88 0.88 0.87 0.86 0.85 0.84 0.79 0.77 0.76 0.85 0.96 1.02 1.06 1.06 1.06 1.03 1.02 1.01 0.99 0.97 0.98 1.02 1.07 1.11 1.15 1.19 1.23 1.23 1.25 1.27 1.33 1.34 1.41 1.43 1.45 1.44
0.43 0.44 0.46 0.38 0.40 0.41 0.42 0.40 0.42 0.48 0.49 0.50 0.55 0.56 0.57 0.60 0.65 0.67 0.67 0.68 0.73 0.81 0.89 0.89 0.92 0.94 1.01 1.04 0.99 1.01 1.03 1.03 0.94 0.89 0.97 1.02 1.03 1.09 1.10 1.09 1.04 1.01 0.98 0.98 1.04 1.05 1.04 1.03 0.99 0.94 0.90 0.89 0.88 0.86 0.86 0.84 0.81 0.74 0.75 0.81 0.87 0.92 0.95 0.97 0.98 0.99 0.99 0.99 0.98 0.99 0.97 0.94 0.93 0.96 1.02 1.07 1.10 1.12 1.13 1.15 1.17 1.18 1.19 1.24 1.27 1.30
0.45 0.46 0.42 0.37 0.46 0.33 0.34 0.47 0.48 0.45 0.51 0.51 0.52 0.57 0.60 0.60 0.61 0.63 0.65 0.67 0.70 0.81 0.86 0.91 0.92 0.97 0.99 1.00 0.99 0.99 0.98 1.08 0.98 0.97 1.04 1.04 1.04 1.06 1.06 1.05 1.03 1.03 1.01 1.01 1.06 1.08 1.10 1.06 1.01 0.95 0.92 0.88 0.90 0.89 0.87 0.84 0.82 0.81 0.79 0.79 0.82 0.83 0.86 0.89 0.89 0.90 0.94 0.96 0.97 0.94 0.92 0.91 0.91 0.90 0.88 0.88 0.92 0.96 1.00 1.04 1.06 1.08 1.09 1.10 1.10 1.10
0.43 0.49 0.41 0.43 0.41 0.34 0.42 0.49 0.49 0.51 0.54 0.57 0.57 0.55 0.53 0.57 0.60 0.60 0.62 0.66 0.70 0.77 0.83 0.86 0.90 0.92 0.96 0.94 0.99 0.98 0.97 1.04 1.01 1.00 1.03 1.06 1.07 1.07 1.06 1.06 1.05 1.04 1.04 1.04 1.04 1.07 1.04 1.01 0.99 0.97 0.97 0.91 0.95 0.91 0.90 0.86 0.84 0.82 0.82 0.80 0.81 0.79 0.79 0.80 0.84 0.85 0.87 0.88 0.92 0.93 0.93 0.90 0.82 0.85 0.86 0.83 0.81 0.80 0.81 0.84 0.89 0.92 0.94 0.96 0.98 0.97
0.55 0.49 0.39 0.48 0.40 0.49 0.49 0.48 0.53 0.53 0.54 0.57 0.61 0.61 0.63 0.64 0.62 0.60 0.60 0.61 0.65 0.67 0.73 0.81 0.86 0.88 0.91 0.93 0.97 0.98 0.95 0.96 0.96 0.97 0.99 1.05 1.04 1.06 1.06 1.05 1.05 1.04 1.02 0.99 1.01 1.03 1.01 1.01 0.98 0.97 0.96 0.93 0.98 0.95 0.91 0.88 0.85 0.83 0.81 0.81 0.80 0.78 0.75 0.75 0.75 0.78 0.78 0.80 0.82 0.82 0.85 0.88 0.86 0.85 0.85 0.84 0.86 0.82 0.75 0.77 0.78 0.82 0.84 0.84 0.89 0.90
0.43 0.36 0.48 0.42 0.35 0.37 0.41 0.53 0.54 0.44 0.53 0.60 0.60 0.62 0.64 0.68 0.69 0.66 0.64 0.61 0.60 0.62 0.66 0.69 0.74 0.82 0.88 0.93 0.93 0.93 0.91 0.92 0.94 0.98 1.00 1.02 1.03 1.06 1.06 1.08 1.08 1.07 1.07 1.07 1.04 1.02 0.99 0.97 0.94 0.92 0.89 0.89 0.91 0.90 0.90 0.90 0.87 0.83 0.81 0.81 0.80 0.79 0.74 0.73 0.74 0.74 0.73 0.75 0.76 0.77 0.79 0.82 0.84 0.82 0.83 0.84 0.85 0.87 0.86 0.83 0.79 0.76 0.84 0.80 0.76 0.78
0.39 0.47 0.45 0.39 0.39 0.42 0.54 0.59 0.58 0.53 0.53 0.58 0.61 0.65 0.69 0.71 0.72 0.68 0.66 0.65 0.65 0.66 0.68 0.67 0.65 0.67 0.73 0.81 0.91 0.92 0.92 0.92 0.94 0.95 0.95 1.01 1.03 1.04 1.00 0.97 1.02 1.03 1.07 1.08 1.04 1.01 0.96 0.95 0.96 0.94 0.88 0.88 0.86 0.83 0.84 0.85 0.81 0.80 0.79 0.78 0.77 0.77 0.74 0.72 0.69 0.69 0.69 0.68 0.67 0.62 0.69 0.72 0.74 0.74 0.75 0.76 0.77 0.79 0.79 0.83 0.84 0.82 0.78 0.77 0.79 0.77
Wind_Speed
23 22 23 23 22 22 22 20 17 13 13 14 14 14 13 12 11 10 11 12 13 11 11 13 13 13 14 15 17 18 18 18 18 18 17 18 18 18 18 18 18 17 16 16 16 16 16 15 15 14 14 14 13 13 12 12 12 11 11 11 11 10 10 10 10 10 9 9 10 10 10 9 9 9 10 10 10 10 10 11 11 11 10 11 11 11
23 23 24 24 22 22 21 19 17 15 14 15 15 14 14 13 11 10 11 13 14 11 10 12 12 12 13 14 16 18 19 19 19 18 18 18 18 18 19 19 18 17 17 17 17 17 16 15 15 15 14 14 14 13 13 13 12 12 12 11 11 11 11 11 10 10 10 9 9 10 10 9 9 9 9 9 9 10 10 10 10 10 10 10 10 10
23 23 23 24 22 21 20 19 19 17 15 15 15 15 14 13 12 11 11 13 14 11 10 11 12 12 13 13 15 17 19 19 19 19 18 19 19 18 19 19 19 18 17 18 17 17 17 16 16 15 14 14 14 14 13 13 12 12 12 12 11 11 11 11 10 10 10 9 9 9 9 9 9 9 9 9 10 10 10 10 10 10 10 10 9 9
22 22 23 24 22 21 20 20 20 18 17 16 15 15 14 14 14 12 12 13 13 11 10 12 12 12 12 13 14 16 17 18 19 19 18 18 19 19 19 19 19 19 18 18 18 18 17 17 16 15 15 14 14 14 14 13 13 12 12 12 12 11 11 11 11 10 10 10 10 9 9 9 9 9 10 10 10 10 10 10 10 10 10 9 9 9
21 20 21 22 23 23 21 21 20 19 18 17 17 16 13 14 14 12 12 13 13 12 11 12 12 12 14 14 14 15 16 17 19 20 19 19 19 19 19 19 19 19 19 19 18 18 18 17 17 16 15 15 14 14 14 14 13 13 12 13 12 12 11 11 11 11 10 10 10 9 9 9 9 10 10 10 9 9 9 9 9 9 9 9 8 8
20 19 21 22 23 24 22 21 21 20 18 18 19 18 13 13 14 13 14 13 12 13 13 14 12 12 14 15 15 15 16 17 18 20 22 21 20 20 20 20 20 20 19 19 19 19 18 18 17 16 16 15 15 15 14 14 14 13 13 13 13 12 12 12 12 12 11 10 10 10 10 10 10 10 9 9 9 9 9 8 8 8 8 8 8 8
20 20 22 23 24 24 23 22 22 21 19 16 18 19 16 14 14 14 14 14 13 11 13 16 14 11 12 15 16 16 16 17 17 19 23 23 21 21 21 20 21 21 20 20 19 19 19 19 18 17 17 16 15 15 14 14 14 14 14 13 13 13 12 12 12 12 11 11 11 10 10 10 10 9 9 9 9 9 8 8 8 8 8 8 7 7
20 20 21 23 24 24 23 23 22 22 20 15 15 18 18 17 16 16 15 14 14 11 12 15 15 12 12 14 16 18 17 17 18 18 21 23 22 22 22 21 21 21 21 20 20 20 20 19 19 18 18 17 16 15 14 14 14 14 14 14 14 13 13 13 12 13 12 12 11 11 10 10 10 9 9 9 9 9 9 8 8 8 7 7 7 7
21 22 21 22 23 23 24 23 22 23 22 16 15 17 17 16 16 17 16 15 14 14 13 15 15 13 12 13 15 18 18 18 18 19 21 23 23 23 22 22 22 22 21 21 20 20 20 20 19 19 18 18 17 15 15 15 14 15 15 14 14 14 13 13 13 13 13 12 12 12 11 11 10 9 9 9 9 9 9 8 8 8 7 7 7 7
20 22 22 22 22 21 23 23 22 23 22 17 16 18 18 17 16 17 17 16 14 15 15 15 16 14 12 12 15 16 17 18 18 18 20 22 23 23 23 24 23 23 22 21 21 21 20 20 20 19 19 19 18 16 16 15 15 15 15 15 15 14 14 14 13 13 13 13 13 12 12 11 10 9 9 9 9 8 8 8 8 8 8 7 7 7
17 20 21 23 22 19 20 21 22 24 23 19 18 20 19 18 17 17 17 16 15 16 17 16 17 16 12 12 14 14 15 15 16 16 18 20 22 23 24 26 25 24 23 23 22 21 21 20 20 20 20 19 18 17 17 16 15 15 16 16 15 15 14 14 14 14 13 13 13 13 12 11 10 10 9 9 9 9 8 8 8 8 8 8 7 7
18 19 20 22 23 20 20 20 21 23 23 21 20 20 19 19 18 18 18 17 17 17 16 15 16 17 14 11 11 12 13 13 14 14 16 19 21 22 23 25 26 25 24 23 22 22 21 21 21 21 20 19 19 18 18 17 16 16 16 16 16 16 15 15 14 14 14 14 13 13 13 12 11 10 9 9 9 9 9 8 8 7 8 8 7 8
19 20 20 21 22 23 22 20 20 21 22 22 22 21 21 20 19 19 19 18 19 18 15 15 16 17 15 12 11 12 12 12 12 12 14 16 18 20 22 24 26 26 24 24 23 22 22 21 21 21 21 20 19 19 18 18 17 16 16 17 16 16 16 15 15 15 15 14 14 14 13 12 12 11 10 9 9 9 8 8 8 8 8 8 8 8
18 21 22 22 21 23 24 21 20 20 22 24 23 23 22 21 19 20 20 19 19 19 17 15 15 16 16 13 12 13 13 12 12 12 13 14 16 18 21 23 25 26 26 24 23 23 22 22 22 22 21 20 20 20 19 18 18 17 17 17 17 16 16 16 15 15 15 15 15 14 14 13 12 12 11 10 9 9 8 8 8 8 8 7 7 8
17 18 21 23 21 23 25 23 19 18 21 24 23 23 23 22 20 19 19 19 19 19 18 16 15 15 15 14 12 13 13 13 13 13 13 13 14 16 19 22 24 26 26 24 23 23 23 23 22 22 21 21 20 20 19 19 18 18 18 18 18 17 17 16 16 16 16 16 15 15 14 14 13 13 12 11 10 10 9 9 8 8 8 7 7 7
16 14 16 20 20 21 25 24 22 19 19 21 23 23 24 23 21 18 18 19 19 18 18 18 17 14 13 13 13 13 13 13 13 13 13 13 14 14 17 20 23 25 26 25 23 23 23 23 23 22 22 21 21 20 20 19 19 19 19 18 18 18 17 17 16 16 16 16 16 15 15 14 14 13 13 12 12 11 10 9 9 9 8 8 7 7
16 15 15 18 20 21 22 23 24 22 18 19 22 24 23 22 22 20 18 18 18 18 17 18 18 15 14 14 14 14 14 13 13 13 13 13 13 14 15 18 22 24 26 25 24 24 24 24 24 23 22 22 21 20 20 20 20 19 19 19 19 18 18 17 17 17 16 16 16 16 16 15 15 14 14 13 13 12 11 11 10 9 9 9 8 8
14 15 15 17 19 21 20 20 23 24 21 18 20 23 22 21 22 21 19 18 19 18 17 18 19 18 17 15 14 15 15 14 13 13 13 13 13 14 15 16 20 24 25 25 25 24 24 24 24 23 23 22 21 21 21 20 20 19 19 19 19 19 19 18 18 17 17 17 16 16 16 16 15 15 14 14 13 13 12 12 11 11 10 10 9 9
13 14 14 16 17 19 20 20 21 24 25 20 17 20 22 21 22 22 20 19 19 19 17 18 19 19 18 16 14 15 14 13 12 12 13 14 14 14 14 16 18 21 24 25 25 24 23 23 23 23 22 22 22 21 21 21 20 19 19 19 19 19 19 19 18 18 18 17 17 17 16 17 16 16 15 15 14 14 13 13 12 12 11 11 10 10
13 14 13 15 16 18 20 21 20 21 25 24 19 19 21 21 21 22 23 21 18 18 18 17 18 18 17 15 14 14 13 12 13 13 13 13 14 14 14 15 17 19 21 23 24 24 23 23 23 23 22 22 22 21 21 21 21 20 19 19 19 19 19 19 19 18 18 18 18 17 17 17 17 16 16 16 15 15 14 14 14 13 13 12 11 11
12 14 13 14 16 18 19 21 21 18 21 25 23 21 21 21 20 20 23 24 20 17 17 17 17 16 15 14 14 14 13 13 13 13 13 13 13 13 14 14 16 18 20 21 23 24 24 24 24 24 23 23 22 22 22 22 21 21 20 20 20 19 19 19 19 18 18 18 18 18 18 17 17 17 17 17 16 16 15 15 14 14 14 13 12 12
11 14 14 13 15 18 17 17 19 18 18 22 23 23 22 22 21 20 21 23 23 20 18 17 16 14 14 15 15 14 13 14 14 13 13 13 13 13 13 14 15 16 18 20 21 23 25 25 24 24 24 24 23 23 23 22 22 22 21 21 20 20 19 19 19 19 19 18 18 18 18 18 18 17 17 17 17 17 17 16 15 15 15 14 14 13
11 13 14 13 13 13 14 16 18 19 19 19 19 21 21 22 22 22 20 21 23 23 20 17 15 13 13 15 16 15 14 14 14 14 14 13 13 13 13 13 13 15 16 18 20 21 24 25 24 24 25 25 25 24 24 23 23 23 22 22 21 21 20 20 20 20 19 19 19 19 19 18 18 18 18 18 18 18 18 17 16 16 16 15 15 15
12 13 14 14 12 11 12 16 18 19 21 20 19 19 20 21 21 21 19 18 20 24 23 19 17 15 14 15 15 15 15 14 14 14 14 14 13 13 13 13 13 14 15 17 18 19 21 23 24 25 25 25 25 25 24 24 24 23 23 23 22 22 21 21 20 20 20 20 20 19 19 19 19 19 19 19 19 19 19 18 17 17 17 16 16 16
12 13 14 14 14 13 14 16 18 18 19 20 19 19 21 22 21 21 20 18 18 21 23 22 19 15 14 16 17 17 16 16 15 15 15 15 14 13 13 13 14 14 15 16 17 18 19 20 22 24 25 27 26 24 24 24 24 23 23 23 23 22 22 22 21 21 21 20 20 20 19 19 19 19 19 19 19 19 19 19 19 18 18 18 17 16
12 12 13 14 15 15 14 14 15 16 17 18 18 17 19 21 22 22 22 22 21 20 21 23 20 15 14 17 18 18 18 17 16 16 16 15 14 14 13 13 13 14 15 16 16 18 19 19 19 20 23 26 27 25 24 25 24 24 24 24 24 23 23 23 22 22 21 21 21 20 20 20 19 19 19 19 19 19 19 19 19 19 19 19 18 18
12 13 14 14 14 14 13 11 12 13 15 16 16 16 17 18 21 22 22 22 21 20 21 22 20 16 16 17 18 18 19 18 17 18 17 16 15 15 14 14 13 14 15 15 15 16 18 19 19 19 20 22 25 25 25 25 25 25 25 26 26 25 24 24 23 23 23 22 22 21 21 21 20 20 19 19 19 19 19 19 20 20 20 20 20 19
12 13 15 15 15 15 14 13 13 13 13 13 13 14 14 15 18 22 23 20 19 20 21 20 21 20 18 18 18 18 19 19 19 19 17 17 16 16 15 14 13 14 14 14 14 15 16 17 18 19 19 20 21 22 24 26 26 26 26 26 26 26 26 26 25 25 24 24 23 23 22 21 21 21 20 20 20 20 19 19 19 20 21 21 21 21
12 13 14 15 16 16 15 15 15 15 14 14 13 13 13 14 15 19 21 20 18 20 18 16 18 21 19 19 19 18 18 19 19 18 17 17 17 16 16 15 14 14 14 14 14 14 15 16 17 18 19 20 20 20 21 23 25 26 26 26 26 27 28 28 28 27 27 26 26 25 24 24 23 22 22 21 21 21 21 21 20 20 21 21 22 22
10 11 12 14 16 17 17 16 16 17 17 16 15 14 13 13 14 16 18 19 20 21 19 17 17 17 17 18 18 17 17 18 18 18 17 17 17 17 16 16 16 15 15 14 13 13 13 14 15 16 17 18 19 20 19 20 21 23 24 24 24 25 27 28 28 28 28 28 28 28 27 26 26 25 24 23 23 23 23 23 22 22 22 22 22 23
10 10 11 13 15 18 18 16 16 18 17 17 17 16 15 14 14 15 16 17 19 20 19 19 19 17 16 17 18 18 17 17 18 18 18 17 17 17 17 16 16 15 15 14 13 13 13 13 14 15 15 16 18 19 19 19 20 21 22 22 22 22 24 26 27 27 27 27 27 28 28 28 28 27 27 26 25 25 24 24 24 24 23 23 23 23
10 10 11 13 15 16 16 16 17 17 17 18 18 17 17 15 14 14 15 16 18 19 19 20 20 19 18 18 18 19 19 18 18 18 18 18 18 18 17 17 16 16 15 15 15 14 14 14 15 15 15 15 16 17 17 18 18 18 19 20 21 21 21 22 24 26 26 25 26 26 27 27 27 27 27 27 27 27 26 26 26 25 25 25 24 24
9 10 10 12 14 14 15 15 16 17 18 19 18 16 15 15 14 14 15 15 17 18 19 19 19 19 19 20 20 20 20 20 19 18 18 18 17 18 18 17 17 16 16 16 16 15 15 15 15 15 15 15 16 16 16 16 16 15 16 17 18 19 19 19 20 22 23 23 23 24 24 25 25 25 26 26 26 27 26 26 27 27 27 26 26 25
7 10 10 10 12 13 13 13 15 17 18 18 17 15 14 15 14 13 14 14 16 17 18 19 18 19 20 21 21 21 21 20 19 18 18 19 18 18 18 18 18 17 17 16 16 16 16 16 16 15 15 15 15 15 15 15 15 15 15 15 15 16 17 18 17 18 19 20 20 21 21 22 22 23 24 25 25 25 26 27 27 28 28 27 27 26
6 8 9 10 11 11 11 13 16 17 17 15 16 16 16 15 15 14 14 15 15 16 18 19 19 19 20 20 19 19 19 18 18 17 18 19 19 19 19 18 18 18 18 17 17 16 16 16 16 15 15 14 14 14 14 14 14 14 14 15 15 15 16 16 16 16 17 17 17 18 18 19 20 20 21 22 23 23 25 27 27 27 27 28 28 27
5 6 8 9 11 11 11 13 15 14 14 14 15 15 16 17 17 16 16 15 15 16 17 18 19 19 19 20 18 18 18 17 17 17 18 19 19 20 20 20 19 18 18 18 17 16 16 16 15 15 15 15 14 14 14 14 14 13 13 14 14 14 15 15 16 16 16 16 17 17 17 17 17 18 18 19 20 20 22 24 27 28 28 27 28 28
4 5 7 8 10 11 12 12 12 12 13 15 14 14 15 16 16 17 17 16 15 17 17 17 18 18 19 20 19 19 19 18 17 18 19 19 19 20 20 20 19 18 18 18 17 16 16 16 15 15 15 15 15 15 15 15 15 14 14 14 13 13 14 14 14 15 15 15 15 15 16 16 16 16 16 17 17 17 18 19 22 25 27 27 28 28
3 4 6 7 8 10 11 11 11 12 12 13 13 13 14 15 16 17 18 16 15 16 17 17 17 18 20 20 20 20 20 20 19 20 20 20 20 20 19 19 19 19 19 18 18 17 17 17 16 16 16 16 16 15 15 15 15 14 14 14 14 14 13 13 13 14 14 14 14 14 14 14 14 14 14 14 15 15 15 15 16 19 22 23 24 26
4 4 6 7 7 9 11 11 11 11 10 10 12 13 13 14 15 16 17 17 15 16 17 17 17 18 20 20 21 21 21 21 21 20 20 21 21 20 20 20 20 21 20 19 19 18 17 17 16 16 16 16 16 16 16 15 14 14 15 15 14 14 14 14 14 14 14 14 14 14 14 14 14 14 14 13 14 14 13 12 12 13 16 18 18 20
4 4 5 7 7 7 9 10 9 9 8 8 11 12 12 13 14 16 17 16 15 16 17 16 17 18 19 20 21 22 21 21 20 20 20 21 21 21 21 21 21 21 20 19 19 18 18 17 17 16 16 16 17 17 17 16 15 15 15 15 15 15 14 14 14 14 14 14 14 14 14 13 13 13 13 13 13 13 13 12 11 11 12 13 14 15
3 4 4 6 6 6 7 9 8 7 7 8 10 12 13 13 15 16 16 15 14 16 17 16 17 18 18 19 21 21 20 20 20 19 19 19 20 20 20 20 21 20 20 20 19 19 18 18 17 16 16 16 17 17 17 17 17 16 15 15 15 15 16 15 15 15 15 15 14 14 14 13 13 13 13 13 13 13 13 13 12 11 11 11 11 11
3 3 3 5 5 6 7 8 7 6 6 8 10 11 12 14 15 15 15 15 16 16 17 17 18 18 18 19 20 19 19 19 19 19 19 18 19 19 19 19 21 21 20 20 20 20 19 18 17 16 16 16 16 17 17 17 17 17 16 16 16 16 16 17 16 16 16 15 15 14 14 14 13 13 13 13 13 13 12 12 12 12 12 11 10 10
3 3 3 3 4 5 7 8 7 6 5 6 8 9 10 12 13 13 13 14 15 16 17 17 17 18 19 19 19 18 18 20 20 20 20 19 19 19 18 18 19 20 21 21 20 20 19 18 18 17 16 16 16 16 17 17 17 17 17 16 16 16 17 17 17 17 17 16 16 15 15 15 14 14 14 14 14 14 14 13 13 13 13 13 12 11
4 4 3 2 3 5 5 6 6 5 5 5 6 7 8 10 12 13 14 14 14 15 16 16 17 18 20 20 19 18 19 21 21 21 21 21 20 20 19 19 18 17 17 18 20 20 20 19 18 17 16 16 16 16 16 16 17 17 17 17 17 17 17 17 17 17 17 17 17 16 16 16 15 15 15 14 14 14 14 14 15 15 15 15 15 14
4 5 4 4 4 5 5 4 5 6 6 6 6 6 7 9 11 13 14 15 14 14 15 16 17 18 20 20 19 19 19 20 21 21 21 21 21 20 20 20 20 19 16 15 16 18 19 19 18 17 16 16 16 16 16 17 17 17 17 17 18 18 17 18 18 18 17 17 17 17 17 16 16 16 15 15 15 15 14 14 15 15 15 16 16 16
5 5 6 6 5 5 6 6 6 6 6 6 6 7 7 8 9 10 12 13 13 13 15 16 16 17 19 20 19 19 19 18 18 20 21 21 22 21 20 20 21 21 20 18 16 15 16 16 17 16 16 17 17 17 17 17 18 18 18 18 18 18 18 18 18 18 18 18 17 17 17 17 16 16 16 16 16 16 16 15 15 15 15 16 16 16
6 7 7 7 7 7 7 6 6 6 6 6 7 7 7 8 8 9 10 12 13 14 14 15 16 17 18 19 20 20 21 19 17 18 19 21 22 22 22 21 22 22 23 22 20 18 16 16 16 16 17 18 19 18 18 18 18 19 19 18 18 19 19 19 19 19 19 18 18 18 18 17 17 17 17 17 17 17 17 17 17 16 16 17 17 17
5 7 8 8 8 8 8 7 7 8 7 7 8 8 8 8 8 8 9 10 12 13 14 15 17 18 18 19 20 21 22 21 19 18 19 20 21 22 23 23 23 23 24 24 23 21 18 17 16 16 17 18 18 19 18 18 19 19 19 19 19 19 19 19 19 19 19 20 20 20 19 19 19 18 18 18 18 18 18 18 18 18 18 18 18 18
6 7 7 7 9 9 9 8 9 9 9 8 8 8 8 9 8 8 9 9 10 12 13 15 17 19 19 20 20 22 23 22 21 20 19 19 20 22 23 23 24 24 24 25 25 23 21 19 18 17 17 16 16 17 17 18 18 18 19 19 20 20 20 20 20 20 20 21 21 21 21 21 21 20 20 19 19 19 19 19 19 19 19 19 19 20
8 8 8 8 10 10 8 8 9 10 10 9 9 9 9 9 9 9 9 9 9 11 12 14 15 17 20 20 21 23 24 24 23 23 22 20 20 21 21 22 23 23 23 24 25 25 23 22 20 19 18 18 17 17 17 17 17 17 18 19 20 20 21 21 21 21 21 21 22 22 22 22 22 22 22 22 22 22 22 21 21 21 21 21 21 22
9 9 9 9 10 9 8 8 9 10 10 10 10 10 10 11 11 10 10 10 10 11 11 13 14 16 18 20 21 23 24 25 24 25 25 24 23 22 22 21 21 22 22 24 25 25 25 23 21 20 20 20 19 19 19 18 18 18 18 18 19 20 21 21 22 22 22 22 22 23 23 23 24 24 24 24 24 24 24 24 24 24 23 23 23 23
Wind_Direction
206 208 208 209 209 207 207 210 215 217 214 211 207 207 207 206 209 205 194 190 190 192 191 194 199 198 198 197 196 196 195 195 194 190 188 187 187 188 189 189 187 186 184 182 182 182 181 180 177 176 175 175 173 173 174 175 174 171 168 165 162 161 158 156 156 155 155 154 152 148 144 140 138 135 132 130 129 129 131 134 135 135 134 134 134 134
208 211 209 209 209 206 209 212 212 213 212 213 210 207 209 207 206 205 199 192 193 199 195 195 201 199 197 197 198 197 195 197 196 192 191 191 190 189 190 191 189 188 186 184 183 184 184 182 179 178 178 177 176 176 176 176 177 175 172 170 167 165 163 161 161 159 158 158 156 153 150 146 143 141 137 134 132 131 131 134 136 137 136 136 136 136
209 213 209 206 206 205 209 211 210 212 214 213 212 211 210 205 202 206 200 193 195 202 199 199 204 201 196 196 197 197 198 200 200 198 196 194 193 192 191 192 192 190 188 187 186 186 186 185 182 181 181 181 180 179 179 179 179 178 176 174 173 171 168 166 164 163 162 161 158 156 153 149 145 144 141 138 136 134 133 135 136 136 137 138 138 139
209 212 209 204 204 206 209 209 209 212 213 214 213 212 209 202 204 207 200 195 197 202 203 203 208 205 198 196 198 199 200 201 203 204 202 198 196 195 194 194 193 192 190 190 189 189 189 188 186 185 184 183 183 183 183 182 181 181 180 179 177 176 173 171 169 168 165 162 161 158 156 153 149 148 146 143 141 139 137 137 137 137 138 139 140 141
209 209 205 203 205 207 208 208 209 210 210 212 214 214 207 199 203 205 197 195 198 205 207 204 209 211 204 202 201 200 201 202 202 205 204 202 200 198 196 195 195 194 193 193 192 191 191 191 189 188 187 186 185 186 186 185 184 183 184 182 180 180 178 175 173 172 168 165 163 161 159 158 156 154 152 149 147 145 143 142 141 141 142 142 142 143
210 207 205 205 205 207 209 209 208 209 211 211 212 215 211 201 200 200 200 200 204 211 209 205 211 211 206 207 206 202 203 205 203 204 204 203 202 201 198 196 195 195 195 195 195 194 193 192 191 190 190 189 188 188 189 188 187 186 186 185 183 182 181 180 177 175 171 168 166 164 162 161 161 160 158 156 154 152 150 147 146 146 146 146 145 146
208 206 207 207 205 205 209 210 207 209 212 210 209 212 213 209 203 201 205 209 213 214 207 208 215 215 210 211 209 205 206 207 206 206 205 203 202 203 201 198 197 197 196 196 197 196 195 193 193 192 192 192 192 191 190 190 190 189 188 187 186 185 183 182 181 178 175 173 170 167 164 163 163 164 163 161 159 158 156 152 151 151 150 151 150 149
206 203 205 206 205 206 209 210 208 208 211 209 205 209 213 213 208 204 208 214 218 218 211 212 218 224 223 217 210 207 208 209 209 208 205 204 204 203 202 200 199 200 199 197 197 198 197 195 194 194 194 195 194 193 192 191 191 191 191 189 188 188 186 184 184 181 180 177 174 170 167 166 166 166 166 166 164 163 163 160 158 157 156 157 156 155
207 205 204 203 206 208 210 210 208 207 211 211 207 209 212 214 213 208 209 217 221 223 219 213 214 221 221 214 209 206 208 211 211 210 207 206 206 205 204 203 201 201 201 200 199 199 198 197 196 196 196 196 196 195 194 193 192 192 193 191 190 191 189 187 185 185 184 181 177 175 173 172 171 169 168 169 169 169 169 168 167 167 165 166 166 165
207 208 206 204 206 208 209 210 209 208 212 213 210 212 214 216 216 211 212 218 218 223 225 213 209 217 216 208 206 205 210 214 212 211 210 209 208 207 207 207 204 203 203 202 201 200 200 199 198 198 197 198 197 196 196 195 193 193 193 193 192 193 193 190 188 187 188 186 183 182 180 178 176 173 172 172 174 174 175 175 176 177 176 176 176 177
203 206 209 209 209 209 207 208 209 211 214 215 212 213 214 215 216 214 215 219 218 222 225 213 209 218 220 209 204 207 213 213 211 210 210 211 210 208 210 210 207 203 203 203 202 201 201 200 200 199 199 198 197 197 197 196 195 194 194 194 194 194 194 193 191 190 190 190 189 188 187 185 182 180 177 177 178 178 180 181 181 183 184 184 184 184
205 207 208 209 211 210 207 207 208 211 214 215 213 212 213 213 214 217 216 218 221 221 219 213 211 219 223 214 204 205 206 205 207 208 208 211 212 209 210 210 207 204 202 203 203 202 201 200 200 200 200 198 198 198 198 197 197 196 196 196 196 196 196 196 195 193 193 193 194 194 192 191 189 186 184 182 182 182 183 185 185 187 188 189 190 190
211 212 208 207 210 210 210 208 207 209 212 213 212 211 212 211 212 217 216 216 222 220 217 216 216 219 223 221 208 201 200 200 205 208 207 210 211 210 210 209 207 206 204 202 203 202 202 202 201 200 201 200 199 199 199 199 198 198 198 197 197 197 197 197 197 196 196 196 197 198 197 195 194 193 190 188 188 188 187 187 189 191 192 193 194 195
210 211 211 211 210 210 211 209 206 208 210 211 211 210 210 211 212 215 216 217 221 221 219 217 217 220 221 218 212 209 211 211 211 214 214 212 211 210 209 207 207 207 206 204 203 203 202 203 202 201 202 202 201 200 200 200 200 199 199 199 199 199 199 199 199 199 199 200 200 201 200 200 199 198 196 194 193 194 193 192 192 194 195 197 199 200
209 209 210 212 212 208 209 211 211 210 209 210 212 212 213 214 215 217 217 218 221 221 219 214 215 221 218 213 214 215 217 218 218 218 217 216 214 212 210 207 206 206 206 205 205 204 203 203 203 202 203 204 203 202 202 202 201 200 201 201 201 201 200 200 200 201 202 203 203 203 203 203 203 202 201 200 199 199 199 199 198 199 200 201 203 204
215 214 206 206 210 207 208 212 213 212 211 210 211 213 216 216 218 221 224 223 223 223 219 215 218 222 216 211 213 215 215 216 219 218 216 217 214 213 212 209 207 206 205 205 204 204 203 203 203 203 204 205 205 205 204 204 203 203 204 203 203 203 203 202 202 203 204 206 207 206 206 206 206 206 205 205 205 205 205 205 205 206 207 206 207 207
215 213 203 205 211 210 210 211 210 212 213 209 210 214 215 216 219 223 225 224 224 226 220 215 220 222 217 216 217 218 217 215 218 218 216 216 213 212 213 211 208 206 205 205 205 204 203 204 204 204 205 206 206 207 206 205 206 207 207 206 205 205 205 204 204 205 206 207 209 209 209 209 209 209 209 210 210 210 210 210 210 211 212 212 211 210
216 211 202 207 210 208 210 211 209 213 214 210 212 214 212 215 221 223 222 218 219 226 222 214 219 222 218 219 220 218 216 214 215 216 214 213 212 213 213 210 207 206 205 205 205 205 204 204 205 205 206 207 207 207 207 207 208 209 209 208 207 207 207 207 207 208 208 209 210 211 211 212 212 212 213 213 214 214 214 214 214 214 215 215 214 213
218 216 206 207 208 203 205 210 211 212 215 216 217 212 208 213 218 218 219 219 217 223 223 214 218 223 220 218 215 212 212 212 214 214 212 211 211 214 213 208 204 204 205 206 205 205 205 204 204 205 206 207 208 207 207 207 208 210 210 210 209 209 209 210 209 210 211 211 212 213 213 214 215 215 216 216 217 217 217 217 218 217 217 217 217 216
216 218 210 206 205 202 204 209 211 209 212 216 219 214 211 216 219 216 218 221 219 222 222 215 216 221 219 215 210 209 212 214 215 213 211 210 211 213 212 207 203 202 205 207 206 206 205 205 206 208 208 208 208 208 207 207 208 209 210 211 211 211 211 212 212 212 213 213 214 215 216 216 217 218 219 219 219 219 219 221 221 221 220 220 220 219
214 214 211 204 202 206 207 209 213 212 209 211 215 215 214 216 219 218 218 219 221 224 222 219 219 218 216 215 211 210 215 218 216 213 212 212 211 211 210 208 205 203 205 207 206 206 206 207 209 211 212 210 210 210 209 208 209 210 211 212 212 212 213 214 214 215 216 215 215 216 217 218 219 220 222 222 222 222 222 223 224 224 223 222 222 222
215 213 214 212 207 209 208 209 215 218 212 209 211 215 215 214 215 218 217 216 220 225 224 224 224 216 214 219 216 213 216 216 214 213 213 213 212 210 210 210 208 206 207 207 207 208 209 209 211 213 214 213 212 212 212 211 211 212 213 214 214 214 215 217 217 217 218 218 217 218 218 220 220 221 223 224 224 224 225 225 226 226 226 226 225 224
216 214 217 216 211 210 210 211 213 214 213 211 212 215 215 214 214 216 217 217 220 224 226 228 228 218 214 218 217 214 214 214 213 211 211 211 211 211 210 209 208 208 208 207 208 210 211 212 214 215 215 214 213 214 215 214 213 214 214 215 216 216 216 217 219 219 220 221 220 220 220 222 223 223 224 225 226 226 226 227 227 228 229 229 228 227
216 215 214 214 211 207 205 206 207 209 212 214 215 216 216 217 217 218 221 222 222 222 221 224 228 224 217 216 215 214 213 214 214 211 210 210 211 212 211 209 207 207 207 207 207 208 210 214 215 216 216 215 214 216 216 215 214 215 216 216 217 218 218 218 219 220 221 223 223 223 223 224 225 226 226 227 227 227 227 228 228 229 229 230 230 229
217 216 214 214 213 209 205 203 202 205 209 212 215 218 219 221 222 223 224 225 225 222 219 221 225 223 217 217 217 215 212 214 215 214 212 211 212 212 212 210 208 207 207 206 206 206 207 212 216 218 218 216 215 216 216 215 215 216 218 219 219 220 220 220 220 220 222 223 225 226 226 227 227 228 229 229 230 229 229 229 230 230 230 230 231 231
221 217 214 215 216 214 211 204 201 205 208 211 215 218 219 221 221 222 222 223 225 224 221 223 225 220 215 217 217 216 215 215 216 217 214 212 213 213 213 213 212 211 209 207 208 208 208 210 213 216 218 217 217 219 219 218 218 219 221 222 223 223 222 221 221 222 223 224 226 227 228 229 229 230 230 231 232 232 232 232 232 231 231 231 232 232
224 219 216 217 218 213 207 200 202 209 208 208 212 216 219 221 220 220 221 223 225 225 224 225 225 221 219 218 217 217 218 216 217 218 214 211 213 214 213 214 214 214 213 211 211 212 213 214 214 215 217 218 220 224 225 223 221 223 224 224 224 225 224 222 222 223 224 225 226 227 229 230 231 231 232 232 233 234 234 234 234 234 233 233 232 232
228 224 220 220 217 208 201 197 203 209 207 208 213 215 219 223 221 219 220 223 226 224 224 224 223 223 223 219 217 218 219 218 216 217 215 211 210 212 213 213 213 214 215 214 213 213 214 216 217 217 219 220 221 225 228 227 227 228 228 227 226 227 227 226 225 225 226 227 228 229 230 231 233 233 235 235 235 235 236 236 236 236 236 235 234 234
234 228 223 221 215 209 208 208 210 214 214 217 218 217 221 225 223 221 222 224 225 223 224 226 226 226 224 217 216 218 218 218 216 217 217 213 210 210 211 211 212 213 214 215 213 213 215 217 218 219 220 221 222 224 227 229 229 230 231 230 229 229 229 229 229 230 231 231 232 232 233 234 234 235 236 238 238 238 238 238 238 237 237 237 236 236
233 228 225 224 219 215 217 219 221 224 223 224 224 224 226 226 225 224 224 226 226 225 227 229 225 224 221 216 215 216 216 217 216 216 217 213 211 212 212 211 212 212 212 214 213 213 215 217 218 220 222 223 224 225 227 228 228 228 229 229 230 230 230 230 230 231 232 234 235 235 236 236 237 237 238 239 240 241 241 241 240 239 238 238 238 237
231 228 227 228 224 220 220 223 227 229 229 230 231 229 228 229 229 227 226 227 227 226 227 226 222 220 220 217 215 215 216 217 216 216 216 214 212 212 212 211 211 210 212 213 214 215 217 218 218 220 222 224 226 227 228 229 229 228 228 228 229 229 230 230 230 230 232 234 235 236 236 237 239 240 240 241 242 242 242 242 241 240 240 240 239 239
234 230 226 227 227 223 221 224 227 229 232 234 233 230 227 227 230 228 227 228 227 226 226 224 221 221 221 219 217 216 218 219 216 216 218 217 215 212 211 211 210 210 212 214 216 219 220 221 221 221 222 224 226 227 229 230 230 230 229 229 229 229 229 230 229 229 230 232 234 235 236 237 239 240 241 241 242 243 243 243 241 240 240 241 241 240
236 234 229 227 229 225 221 222 223 225 229 230 229 227 224 225 228 227 226 227 227 227 226 223 223 225 223 222 221 219 220 219 217 218 219 218 217 215 212 211 212 214 216 217 219 220 221 222 223 223 224 225 225 227 228 228 227 227 228 229 229 229 228 228 228 228 228 230 232 234 236 236 238 239 239 240 241 242 243 243 243 241 241 241 241 240
239 235 230 227 230 226 220 220 220 221 224 224 222 224 226 229 231 228 226 227 226 227 227 226 227 227 224 223 222 220 221 220 218 219 222 220 218 218 217 215 216 218 220 221 222 221 221 223 224 224 224 223 222 223 224 224 223 223 223 225 227 226 225 224 225 226 226 228 230 232 234 235 237 238 239 240 241 242 242 243 243 243 242 241 240 240
248 237 230 226 227 226 220 221 222 222 223 223 224 227 231 233 233 230 228 229 228 229 230 228 227 227 225 222 220 218 219 220 219 221 225 224 220 219 219 218 219 220 221 223 224 223 221 221 223 224 224 222 219 218 218 218 218 220 222 223 225 225 224 223 224 226 227 228 229 230 232 234 236 238 239 240 241 243 244 243 242 242 242 240 239 239
261 243 233 228 226 225 222 223 224 223 220 220 224 230 233 233 233 231 229 230 231 232 232 229 227 227 223 218 216 217 216 217 219 223 228 228 223 220 220 220 221 221 221 221 222 222 223 222 220 220 221 221 220 219 220 219 219 220 222 223 223 224 224 224 225 226 228 228 229 231 232 233 235 238 240 241 243 244 245 245 243 242 242 241 239 239
265 246 237 231 226 227 228 227 225 224 220 218 223 230 233 233 234 233 231 231 234 233 230 228 226 224 220 217 217 218 215 215 221 226 228 228 224 222 220 220 220 220 220 220 218 217 220 221 219 218 219 219 219 221 223 224 224 223 222 222 222 222 223 224 225 226 227 227 228 229 231 233 235 238 240 242 243 245 247 248 246 243 242 242 240 239
265 249 240 236 228 229 232 230 228 227 223 219 224 229 233 234 234 234 233 233 236 235 229 228 228 223 219 220 219 216 216 219 223 227 226 224 222 220 218 217 217 217 217 218 218 216 218 218 218 219 219 218 218 220 222 224 224 223 221 220 220 219 220 221 222 223 223 224 225 227 230 231 232 234 236 238 240 242 245 247 248 245 241 240 240 239
260 247 238 238 235 231 232 231 231 230 225 224 228 232 235 234 232 233 232 231 235 238 231 229 228 223 219 220 219 217 220 223 224 224 223 220 218 218 216 215 215 214 215 216 216 217 218 219 218 219 220 220 220 222 224 225 224 223 223 222 221 219 218 218 220 221 221 222 224 226 227 228 229 230 232 233 236 238 238 240 245 244 238 236 240 242
259 249 238 239 238 233 233 234 232 228 227 235 240 238 235 230 229 232 232 230 237 241 235 230 228 222 219 220 221 222 225 225 223 221 221 219 217 217 215 213 213 214 214 214 214 215 218 220 219 219 220 222 223 225 227 227 225 224 223 223 223 221 220 221 222 223 223 223 225 226 226 227 228 229 230 233 235 237 237 238 241 239 233 234 240 242
260 255 247 242 240 235 235 235 230 223 232 247 249 241 235 230 227 230 232 235 242 244 238 234 229 223 218 218 221 225 227 224 219 217 217 215 214 214 215 213 213 213 213 213 214 215 217 219 220 220 222 223 224 225 227 228 226 225 225 225 224 223 223 224 225 226 227 227 227 227 227 227 229 230 231 233 235 238 239 241 243 240 234 233 237 239
261 254 245 243 245 243 240 239 233 224 237 257 254 242 236 231 226 229 237 242 246 245 239 234 230 225 222 221 222 225 223 219 215 213 213 211 207 209 213 214 213 213 213 214 215 216 216 218 219 220 222 224 226 226 227 228 227 227 228 228 227 226 226 226 227 228 230 231 231 231 230 230 232 234 235 236 237 238 240 241 242 240 236 234 236 235
271 264 250 245 251 246 239 241 241 235 250 272 259 241 235 231 228 234 241 243 246 245 238 233 231 227 224 223 223 222 218 216 215 214 213 213 211 210 212 212 213 213 214 215 217 217 217 217 218 219 222 225 227 229 230 231 230 230 230 230 230 230 229 228 228 229 231 233 234 235 235 235 236 237 239 240 240 240 240 240 240 239 238 236 235 233
258 263 262 254 254 252 244 242 245 246 261 275 260 241 238 237 235 240 242 242 245 244 237 234 232 227 225 224 222 219 216 216 217 216 214 214 215 214 212 211 213 214 214 215 217 218 218 217 216 219 222 225 228 230 232 232 232 232 233 232 232 232 230 230 229 230 231 233 234 235 236 236 237 238 240 241 242 241 241 242 242 242 241 239 238 238
255 264 267 260 257 260 259 255 252 251 256 261 255 247 248 246 242 243 243 243 245 242 237 235 232 229 229 226 221 219 220 220 219 218 217 216 215 213 210 210 213 214 214 212 211 211 213 214 216 219 223 226 229 231 232 233 233 233 234 235 234 233 231 231 230 230 231 232 233 234 235 236 236 238 238 240 241 241 242 242 241 242 243 243 243 243
253 257 258 258 260 259 255 253 253 253 256 257 252 249 254 256 252 249 247 246 245 242 238 235 232 230 229 225 219 219 223 223 221 220 219 219 218 216 213 212 213 214 214 214 212 211 212 215 218 223 227 230 232 233 234 235 235 235 236 236 236 235 233 232 232 232 232 233 233 234 235 236 237 237 238 238 239 240 241 242 241 241 242 243 245 245
249 254 255 257 261 259 254 252 253 256 260 260 255 250 255 262 261 257 253 250 248 245 240 235 231 229 225 221 219 221 222 221 221 221 220 220 220 219 217 217 217 217 218 219 221 224 225 225 226 230 233 234 235 236 236 237 237 237 236 236 236 235 234 234 234 233 233 234 235 236 236 237 238 238 239 239 239 240 241 242 242 242 243 244 245 246
254 257 258 258 259 260 259 254 254 256 257 260 261 259 260 264 265 263 259 253 250 247 243 237 233 229 225 220 220 223 223 220 220 220 220 221 221 221 220 221 221 222 222 222 224 226 227 227 227 229 233 235 237 237 237 237 237 237 237 237 237 236 236 235 235 236 236 236 237 238 239 240 240 241 242 242 242 242 243 244 244 245 245 246 248 249
260 259 262 262 262 263 259 252 252 254 254 256 261 264 266 266 266 265 263 258 253 249 245 242 238 234 231 226 221 221 222 222 221 220 221 224 225 224 224 225 226 226 226 225 225 226 226 226 227 228 229 231 234 236 236 236 237 237 237 238 239 239 238 238 237 238 238 238 238 239 240 241 243 243 244 245 245 245 246 247 248 248 249 250 251 252
261 261 262 263 265 265 261 256 257 259 257 257 261 264 266 267 266 265 265 263 259 254 250 246 242 238 236 234 229 225 223 222 223 223 223 227 228 226 226 227 227 228 229 228 227 227 228 230 232 233 233 234 235 235 236 237 237 238 239 239 239 239 240 240 240 240 241 240 240 241 241 242 244 245 246 247 248 248 248 249 250 250 251 252 254 255
263 266 266 267 269 268 265 264 265 264 261 261 263 263 265 266 266 264 264 263 262 259 255 250 246 243 241 240 238 233 227 225 226 226 227 229 230 229 229 228 226 226 229 229 228 228 230 232 234 236 239 240 239 239 239 239 238 238 240 242 241 240 240 240 241 242 243 243 243 243 243 243 245 246 247 248 249 249 249 250 251 252 253 254 255 257